Regional Weather Roundup
Issued by NWS Newport/Morehead, NC

Current Version | Previous Version | Graphics & Text | Print | Product List | Glossary On
Versions: 1 2 3 4 5 6 7 8 9 10 11 12 13 14 15 16 17 18 19 20 21 22 23 24 25 26 27 28 29 30 31 32 33 34 35 36 37 38 39 40 41 42 43 44 45 46 47 48 49 50
000 ASUS42 KMHX 031525 RWRMHX WEATHER ROUNDUP FOR EASTERN NORTH CAROLINA NATIONAL WEATHER SERVICE NEWPORT/MOREHEAD CITY NC 1100 AM EDT TUE MAY 03 2016 NOTE: "FAIR" INDICATES FEW OR NO CLOUDS BELOW 12,000 FEET WITH NO SIGNIFICANT WEATHER AND/OR OBSTRUCTIONS TO VISIBILITY NCZ015>017-031-032-045>047-102-103-031600- NORTH COAST CITY SKY/WX TMP DP RH WIND PRES REMARKS EDENTON CLOUDY 68 68 100 S8 29.86S ELIZABETH CITY LGT RAIN 67 65 93 SW8 29.84F KITTY HAWK DRIZZLE 67 67 100 CALM 29.84F MANTEO NOT AVBL $$ NCZ045>047-081-094-103-104-031600- CENTRAL COAST CITY SKY/WX TMP DP RH WIND PRES REMARKS FRISCO LGT RAIN 67 66 97 W12 29.90R SWANQUARTER NOT AVBL $$ NCZ095-097-098-100-101-031600- SOUTHERN COAST CITY SKY/WX TMP DP RH WIND PRES REMARKS BEAUFORT LGT RAIN 66 64 93 W10 29.92R CEDAR ISLAND NOT AVBL JACKSONVILLE TSTM 66 63 90 S7 29.87F PINEY ISLAND NOT AVBL WILMINGTON HVY RAIN 66 64 93 SE3 29.89F VSB 1/2 $$ NCZ011>013-027>030-043-044-078>080-089-090>093-098-031600- COASTAL PLAIN CITY SKY/WX TMP DP RH WIND PRES REMARKS AHOSKIE CLOUDY 65 63 93 CALM 29.84S CLINTON HVY RAIN 67 67 100 CALM 29.90R ELIZABETHTOWN LGT RAIN 67 66 96 CALM 29.90R GOLDSBORO CLOUDY 68 68 100 S8 29.85R GREENVILLE CLOUDY 68 66 94 SW12 29.88S HAVELOCK RAIN 66 64 93 SW5 29.90F KENANSVILLE CLOUDY 65 65 97 CALM 29.89S KINSTON CLOUDY 66 66 100 S9 29.88S NEW BERN LGT RAIN 66 63 90 S10 29.90S RICHLANDS TSTM 64 64 100 S8 29.90R ROCKY MOUNT CLOUDY 70 67 90 S9 29.84F WASHINGTON DRIZZLE 66 64 94 S8 29.86F WHITEVILLE LGT RAIN 67 65 94 CALM 29.88S $$ AMZ130-135-150-152-154-156-158-170-250-252-270-ANZ085-086-088-633-658-670-031600- MARINE OBSERVATIONS STATION/POSITION TIME TEMP WIND PRES WAVE SWELL AIR SEA DIR/SP/G HT/PER HT/PER (UTC) (F) (DEG/KT/KT) (MB) (FT/S) (FT/S) CHESAPEAKE LIGHT 1500 64 230/ 13/ 14 1010.4 64 E VA BEACH 1450 59 54 260/ 10/ 12 1010.1 3/ 6 3/ 6 DUCK 1500 66 65 270/ 6/ 9 1009.9 2 E DUCK 1511 58 N/A 2/10 OREGON INLET 1500 66 72 250/ 5/ 7 1010.8 13E OREGON INLT 1500 61 N/A 4/ 6 3/ 6 HATTERAS CG 1500 67 69 230/ 9/ 16 1011.9 DIAMOND BUOY 1450 68 72 270/ 17/ 19 1012.0 5/ 6 2/11 CAPE LOOKOUT 1500 66 290/ 13/ 15 1012.7 BEAUFORT LAB 1500 66 67 290/ 6/ 10 1012.1 30 SE NEW RVR IN 1425 70 N/A 6/ 7 27 SE WRIGHTSVLE 1508 70 72 310/ 14/ 21 1012.1 5 SE WRIGHTSVLE 1508 67 69 210/ 8/ 12 1014.1 225 S CAPE HAT 1450 74 74 180/ 17/ 19 1015.6 4/ 5 2/ 9 41 SE CHARLESTON 1450 75 74 240/ 14/ 16 1011.1 4/ 6 2/ 7 $$

USA.gov is the U.S. government's official web portal to all federal, state and local government web resources and services.